This is the latest recevied weather packets stored in our database for station/object W4KUS-10. If no packets are shown the sender has not sent any weather packets the latest 10 day(s).
| Time | Temp. | Humidity | Pressure | Rain* | Wind** | Luminosity | Snow |
|---|---|---|---|---|---|---|---|
| 1777055440 | 31.11° C | 28% | 1010.6 hPa | 0 mm | - | - | - |
| 1777055140 | 31.67° C | 35% | 1010.7 hPa | 0 mm | - | - | - |
| 1777054840 | 31.67° C | 30% | 1010.7 hPa | 0 mm | - | - | - |
| 1777054540 | 31.67° C | 28% | 1010.7 hPa | 0 mm | - | - | - |
| 1777054240 | 31.67° C | 27% | 1010.8 hPa | 0 mm | - | - | - |
| 1777053940 | 32.22° C | 29% | 1010.8 hPa | 0 mm | - | - | - |
| 1777053640 | 31.67° C | 29% | 1010.8 hPa | 0 mm | - | - | - |
| 1777053340 | 31.67° C | 30% | 1010.9 hPa | 0 mm | - | - | - |
| 1777053040 | 31.67° C | 32% | 1010.8 hPa | 0 mm | - | - | - |
| 1777052740 | 31.11° C | 32% | 1010.9 hPa | 0 mm | - | - | - |
| 1777052440 | 31.11° C | 31% | 1010.9 hPa | 0 mm | - | - | - |
| 1777052140 | 31.11° C | 33% | 1011 hPa | 0 mm | - | - | - |
| 1777051840 | 31.11° C | 33% | 1011.1 hPa | 0 mm | - | - | - |
| 1777051540 | 31.11° C | 35% | 1011 hPa | 0 mm | - | - | - |
| 1777051240 | 30.56° C | 35% | 1011.1 hPa | 0 mm | - | - | - |
| 1777050940 | 30.56° C | 35% | 1011.2 hPa | 0 mm | - | - | - |
| 1777050640 | 30.56° C | 34% | 1011.2 hPa | 0 mm | - | - | - |
| 1777050340 | 30.56° C | 35% | 1011.3 hPa | 0 mm | - | - | - |
| 1777050040 | 30.56° C | 36% | 1011.4 hPa | 0 mm | - | - | - |
| 1777049740 | 30° C | 38% | 1011.5 hPa | 0 mm | - | - | - |
| 1777049440 | 30° C | 38% | 1011.5 hPa | 0 mm | - | - | - |
| 1777049140 | 29.44° C | 38% | 1011.5 hPa | 0 mm | - | - | - |
| 1777048840 | 29.44° C | 37% | 1011.6 hPa | 0 mm | - | - | - |
* Rain latest hour (hover to see other rain measurements)
** Current wind speed in m/s (hover to see current wind gust speed)